[[{"header":{"parameterUnit":"m.s-1","parameterCategory":1,"la1":30.2991,"la2":30.254,"lo1":-89.0895,"lo2":-89.0444,"dy":0.0017,"dx":0.0017,"nx":28,"ny":28,"refTime":"2024-05-01T03:00:00:Z","depth":0,"parameterNumber":2,"parameterNumberName":"U-component_of_WINDS"},"data":[0,0,0,0,0,0,0,0,0,0,0,0,0,0,0,0,0,0,0,0,0,0,0,0,0,0,0,0,0,0,0,0,0,0,0,0,0,0,0,0,0,0,0,0,0,0,0,0,0,0,0,0,0,0,0,0,0,0,1.2215,1.2215,0,1.2229,1.2229,1.2229,1.2223,1.2222,1.2222,1.2222,1.2237,1.2238,1.2238,0,0,0,0,0,0,0,0,0,0,0,0,0,1.2183,1.2183,1.2215,1.2215,1.2215,1.2229,1.2229,1.2229,1.2223,1.2222,1.2222,1.2222,1.2237,1.2238,1.2238,0,0,0,0,0,0,0,0,0,0,0,0,0,1.2197,1.2184,1.2215,1.2214,1.2214,1.2229,1.2229,1.2229,1.2223,1.2222,1.2222,1.2221,1.2236,1.2237,1.2239,1.2256,0,0,1.2242,1.2242,0,0,0,0,0,0,0,0,1.2196,1.2198,1.2214,1.2214,1.2214,1.2224,1.2223,1.2238,1.2223,1.2219,1.2222,1.2221,1.2233,1.2234,1.2238,1.2257,1.2257,1.2242,1.2243,1.2243,1.2243,0,0,0,0,0,0,0,1.2195,1.2197,1.2221,1.2214,1.2214,1.2213,1.2214,1.2226,1.2229,1.222,1.2219,1.2221,1.2233,1.2237,1.2238,1.2258,1.2242,1.2243,1.2244,1.2244,1.2291,1.2292,0,0,0,0,0,0,1.2194,1.2197,1.222,1.2221,1.2203,1.2214,1.2215,1.2221,1.2229,1.223,1.2221,1.2221,1.2236,1.2237,1.2239,1.226,1.2243,1.2244,1.2245,1.2291,1.2291,1.2292,0,0,0,0,0,0,1.2193,1.2196,1.222,1.2209,1.2212,1.2215,1.2221,1.2222,1.2226,1.223,1.2231,1.2225,1.2235,1.2237,1.2252,1.2261,1.2245,1.2246,1.229,1.2291,1.2292,1.2302,0,0,0,0,0,0,1.2193,1.2196,1.2203,1.2209,1.2212,1.2232,1.2222,1.2222,1.2228,1.2227,1.2234,1.2235,1.2235,1.225,1.2253,1.2262,1.2247,1.2289,1.229,1.2292,1.2301,1.2304,1.2305,0,0,0,0,0,1.2191,1.2205,1.2203,1.2206,1.222,1.2233,1.2234,1.2234,1.2228,1.2235,1.2238,1.2234,1.2259,1.2252,1.2255,1.2264,1.2289,1.229,1.2291,1.23,1.2303,1.2305,0,0,0,0,0,0,1.22,1.2206,1.2204,1.222,1.2226,1.2231,1.224,1.2237,1.2245,1.2244,1.2244,1.2245,1.226,1.2264,1.2255,1.2281,1.2273,1.2275,1.2279,1.2281,1.2283,1.2282,1.2248,0,0,0,0,0,1.2204,1.2213,1.2218,1.2232,1.2235,1.2237,1.2242,1.2242,1.2248,1.225,1.2254,1.226,1.2269,1.2276,1.2284,1.2302,1.2303,1.2309,1.2311,1.2313,1.2315,1.2324,1.2327,1.2296,1.2296,1.2296,0,0,1.2212,1.2216,1.2222,1.2234,1.2238,1.2248,1.2239,1.225,1.2257,1.2252,1.2266,1.2269,1.2276,1.2292,1.2299,1.2295,1.2324,1.2315,1.2316,1.2317,1.2326,1.2329,1.2331,1.2297,1.2297,1.2297,0,0,1.2232,1.2236,1.2248,1.2252,1.2259,1.226,1.2263,1.2269,1.2271,1.2285,1.2281,1.229,1.2306,1.2311,1.2315,1.2337,1.2334,1.2339,1.235,1.2359,1.2362,1.2364,1.2372,1.2374,1.2341,1.2341,1.2341,0,1.2241,1.2255,1.2254,1.2265,1.2271,1.2266,1.2278,1.2283,1.2292,1.2296,1.2291,1.2311,1.2315,1.2332,1.2337,1.2341,1.2344,1.2339,1.2362,1.2364,1.2366,1.2373,1.2376,1.2342,1.2342,1.2342,1.2342,0,1.2266,1.2276,1.2285,1.2294,1.23,1.2312,1.2313,1.2319,1.2318,1.232,1.2334,1.2339,1.2348,1.2352,1.2351,1.2369,1.2366,1.2361,1.2353,1.2369,1.2376,1.2379,1.2343,1.2343,1.2342,1.2342,0,0,1.2292,1.23,1.2304,1.2308,1.2315,1.2322,1.2334,1.2343,1.2348,1.2355,1.2364,1.2377,1.2373,1.2378,1.2378,1.2386,1.2402,1.238,1.238,1.2384,1.2422,1.2426,1.2429,1.24,1.2401,1.2401,1.2422,0,1.2312,1.2332,1.2332,1.235,1.2359,1.2355,1.2365,1.237,1.2372,1.238,1.2382,1.2392,1.2385,1.2388,1.2396,1.2399,1.241,1.2397,1.2409,1.2409,1.2408,1.2432,1.2436,1.2455,1.2424,1.2425,1.2425,0,1.2339,1.2346,1.2365,1.2371,1.2374,1.2383,1.2392,1.2399,1.2405,1.2406,1.2412,1.241,1.2421,1.2412,1.2428,1.242,1.2424,1.2426,1.2427,1.2428,1.2418,1.2435,1.2462,1.2464,1.2429,1.2429,1.2429,0,1.2356,1.237,1.2384,1.2387,1.2394,1.24,1.2403,1.2409,1.2414,1.2421,1.2425,1.2433,1.2438,1.2445,1.2445,1.2439,1.2461,1.2452,1.2462,1.2462,1.2467,1.2467,1.2496,1.247,1.247,1.247,1.247,0,1.2378,1.239,1.2391,1.24,1.2413,1.2412,1.2425,1.2428,1.2433,1.2441,1.2438,1.2446,1.2446,1.2455,1.2455,1.2468,1.247,1.2471,1.2471,1.2472,1.2471,1.2475,1.2474,1.2471,1.2471,1.247,1.247,0,1.24,1.2401,1.2415,1.242,1.2422,1.2431,1.2436,1.2444,1.2445,1.2456,1.2459,1.2461,1.2471,1.2472,1.2483,1.2483,1.2499,1.2497,1.2497,1.2497,1.2507,1.2506,1.2538,1.2543,1.2514,1.2515,1.2515,0,1.2414,1.2423,1.2429,1.2435,1.2438,1.2447,1.2453,1.2453,1.2458,1.2466,1.2473,1.2482,1.2489,1.2505,1.2508,1.2516,1.2515,1.2526,1.2516,1.2516,1.2515,1.2515,1.2516,1.2528,1.2528,1.2528,1.2529,0,1.244,1.244,1.2448,1.2456,1.2463,1.2469,1.2475,1.248,1.248,1.2487,1.2497,1.2502,1.2514,1.2523,1.2531,1.2535,1.2532,1.2532,1.2534,1.2535,1.2534,1.2535,1.2502,1.2531,1.2531,1.253,1.253,1.253,1.2458,1.2466,1.2471,1.248,1.2485,1.2491,1.2498,1.2501,1.2509,1.2518,1.2517,1.2528,1.2534,1.2544,1.2548,1.2557,1.2553,1.2557,1.2558,1.2559,1.256,1.2533,1.2558,1.2558,1.2558,1.2558,1.2558,0,1.2483,1.2487,1.2495,1.2504,1.2511,1.2507,1.2514,1.252,1.2529,1.2535,1.2542,1.2553,1.2562,1.2565,1.2574,1.258,1.2579,1.2582,1.2582,1.2583,1.2563,1.2559,1.2583,1.2583,1.2583,1.2583,1.2583,1.2583,1.2497,1.251,1.2511,1.2527,1.253,1.254,1.2544,1.2549,1.2554,1.2566,1.2574,1.2576,1.258,1.2589,1.2597,1.2598,1.2601,1.2605,1.2605,1.2587,1.2584,1.2582,1.2579,1.2606,1.2606,1.2625,1.2625,1.2625]},{"header":{"parameterUnit":"m.s-1","parameterCategory":1,"la1":30.2991,"la2":30.254,"lo1":-89.0895,"lo2":-89.0444,"dy":0.0017,"dx":0.0017,"nx":28,"ny":28,"refTime":"2024-05-01T03:00:00:Z","depth":0,"parameterNumber":3,"parameterNumberName":"V-component_of_WINDS"},"data":[0,0,0,0,0,0,0,0,0,0,0,0,0,0,0,0,0,0,0,0,0,0,0,0,0,0,0,0,0,0,0,0,0,0,0,0,0,0,0,0,0,0,0,0,0,0,0,0,0,0,0,0,0,0,0,0,0,0,2.2756,2.2757,0,2.2836,2.2837,2.2838,2.2812,2.281,2.2808,2.2806,2.2887,2.2891,2.2894,0,0,0,0,0,0,0,0,0,0,0,0,0,2.2574,2.2577,2.2756,2.2757,2.2758,2.2836,2.2837,2.2838,2.2812,2.281,2.2808,2.2806,2.2886,2.289,2.2895,0,0,0,0,0,0,0,0,0,0,0,0,0,2.2653,2.2578,2.2756,2.2754,2.2755,2.2836,2.2837,2.2839,2.2812,2.281,2.2807,2.2805,2.2884,2.289,2.2895,2.2982,0,0,2.2913,2.2915,0,0,0,0,0,0,0,0,2.2649,2.266,2.2753,2.2754,2.2755,2.2811,2.2803,2.2887,2.2813,2.279,2.2806,2.2803,2.2864,2.2871,2.2892,2.2986,2.299,2.2913,2.2917,2.2919,2.2921,0,0,0,0,0,0,0,2.2643,2.2656,2.2788,2.2755,2.2756,2.2748,2.2756,2.2818,2.2841,2.2792,2.279,2.28,2.2864,2.2886,2.2893,2.2991,2.2913,2.2918,2.2922,2.2924,2.3154,2.3156,0,0,0,0,0,0,2.2638,2.2652,2.2785,2.279,2.2695,2.2753,2.2762,2.2796,2.284,2.2844,2.2803,2.2799,2.2878,2.2887,2.2896,2.2996,2.2919,2.2924,2.2927,2.3151,2.3154,2.3157,0,0,0,0,0,0,2.2634,2.265,2.2782,2.2721,2.2737,2.2759,2.2797,2.2799,2.2821,2.2848,2.2851,2.2822,2.2876,2.2888,2.296,2.2999,2.2927,2.2932,2.3148,2.3152,2.3156,2.32,0,0,0,0,0,0,2.2629,2.2649,2.2684,2.2722,2.274,2.2846,2.2799,2.2802,2.2831,2.2827,2.2867,2.2871,2.2875,2.2951,2.2965,2.3005,2.2936,2.3144,2.315,2.3155,2.3195,2.3206,2.3214,0,0,0,0,0,2.2623,2.2694,2.2686,2.2702,2.2784,2.2848,2.2859,2.2863,2.2835,2.2868,2.2884,2.287,2.2993,2.2959,2.2975,2.3017,2.3142,2.3148,2.3154,2.3191,2.3204,2.3214,0,0,0,0,0,0,2.2661,2.2699,2.269,2.2777,2.2809,2.2844,2.2887,2.2877,2.2918,2.2912,2.2915,2.2924,2.2996,2.3014,2.2976,2.31,2.3063,2.3072,2.3086,2.3098,2.3107,2.31,2.2941,0,0,0,0,0,2.268,2.273,2.276,2.2833,2.2849,2.2865,2.2894,2.2893,2.2927,2.2941,2.2962,2.2995,2.304,2.307,2.3114,2.3198,2.3204,2.3234,2.3244,2.3251,2.3259,2.3299,2.3312,2.3178,2.3177,2.3177,0,0,2.2719,2.2745,2.2777,2.2841,2.2866,2.2915,2.2877,2.2933,2.2968,2.2949,2.3017,2.3033,2.3069,2.3146,2.3181,2.3163,2.3297,2.3259,2.3265,2.3268,2.3307,2.3319,2.333,2.3182,2.3181,2.318,0,0,2.2814,2.2841,2.2902,2.2927,2.2965,2.2975,2.2989,2.3024,2.3034,2.3102,2.3087,2.3129,2.3209,2.3233,2.3257,2.3355,2.3341,2.337,2.3417,2.3457,2.3467,2.3476,2.3507,2.3519,2.3377,2.3377,2.3377,0,2.2857,2.2932,2.2935,2.2989,2.3016,2.3,2.3059,2.3084,2.3135,2.3152,2.3131,2.3227,2.3251,2.333,2.3354,2.3375,2.3388,2.3364,2.3466,2.3475,2.3484,2.3513,2.3525,2.338,2.338,2.338,2.3379,0,2.298,2.3032,2.3076,2.3124,2.3155,2.3213,2.3222,2.3253,2.3249,2.3259,2.3326,2.3353,2.34,2.3419,2.3417,2.3497,2.3484,2.3465,2.3427,2.3499,2.3526,2.3538,2.3384,2.3383,2.3383,2.3382,0,0,2.3104,2.3149,2.3165,2.3183,2.3222,2.3261,2.3316,2.3361,2.3385,2.342,2.3463,2.3528,2.3509,2.3535,2.3535,2.357,2.364,2.3545,2.3546,2.3559,2.3724,2.3736,2.375,2.3632,2.3634,2.3636,2.372,0,2.3199,2.3295,2.3297,2.3384,2.3428,2.3411,2.3458,2.3485,2.3496,2.3534,2.3545,2.3589,2.3563,2.3578,2.3612,2.3624,2.3673,2.3619,2.3668,2.367,2.3657,2.3765,2.3779,2.3858,2.3731,2.3733,2.3735,0,2.3324,2.3359,2.345,2.3477,2.3496,2.3538,2.3576,2.3614,2.3643,2.3648,2.3674,2.3668,2.372,2.3681,2.3751,2.3714,2.3734,2.3743,2.3746,2.3749,2.3705,2.3767,2.3883,2.3894,2.3752,2.3751,2.375,0,2.3399,2.347,2.3532,2.3549,2.3584,2.3613,2.3628,2.3655,2.368,2.3713,2.3729,2.3768,2.3789,2.3818,2.3821,2.3793,2.3889,2.3852,2.3891,2.3891,2.3911,2.3909,2.4029,2.3929,2.3929,2.3929,2.3929,0,2.3503,2.3558,2.3566,2.3604,2.3663,2.3664,2.3722,2.3735,2.3758,2.3796,2.3785,2.3821,2.3824,2.386,2.3862,2.3916,2.3927,2.393,2.3929,2.3929,2.3928,2.3941,2.3934,2.3932,2.3931,2.3931,2.393,0,2.3597,2.3605,2.367,2.3696,2.3704,2.3746,2.3767,2.3802,2.381,2.3858,2.3869,2.3881,2.3923,2.3928,2.3978,2.3979,2.4043,2.4038,2.4033,2.4031,2.4068,2.4063,2.4198,2.4213,2.4107,2.4108,2.4109,0,2.3662,2.3703,2.3732,2.3756,2.3773,2.3813,2.3837,2.3838,2.3864,2.3897,2.3927,2.3967,2.3998,2.4064,2.4077,2.4113,2.4107,2.4151,2.4112,2.4109,2.4103,2.4099,2.4101,2.4158,2.4159,2.416,2.4161,0,2.3774,2.3774,2.381,2.3846,2.3875,2.3904,2.3931,2.3951,2.3955,2.3984,2.4025,2.4049,2.4097,2.4136,2.417,2.4184,2.4172,2.4173,2.4183,2.4182,2.4176,2.4175,2.405,2.417,2.4169,2.4168,2.4168,2.4167,2.3853,2.3886,2.3911,2.3949,2.3969,2.3993,2.4025,2.4036,2.4071,2.4109,2.4107,2.4152,2.4175,2.422,2.4236,2.4269,2.4255,2.4271,2.4274,2.4277,2.4279,2.4172,2.4276,2.4276,2.4276,2.4276,2.4275,0,2.3961,2.3974,2.401,2.4046,2.4076,2.4062,2.4089,2.4114,2.4153,2.4176,2.4206,2.4251,2.4287,2.4301,2.4336,2.4359,2.4354,2.4368,2.4365,2.4367,2.4292,2.4278,2.4371,2.4371,2.4371,2.4371,2.4371,2.4371,2.402,2.4075,2.4077,2.414,2.4154,2.4196,2.4213,2.4233,2.4251,2.4301,2.4331,2.4339,2.4357,2.4392,2.4423,2.4426,2.4438,2.4453,2.4453,2.4383,2.4373,2.4364,2.435,2.4457,2.4457,2.4525,2.4525,2.4526]}]]